Time,TemperatureF,DewpointF,PressureIn,WindDirection,WindDirectionDegrees,WindSpeedMPH,WindSpeedGustMPH,Humidity,HourlyPrecipIn,Conditions,Clouds,dailyrainin,SoftwareType,DateUTC
2013-10-03 00:00:00,73.7,65.3,30.14,SW,225,2.0,5.0,75,0.00,,---,0.00,VWS V13.00,2013-10-03 04:00:00,
2013-10-03 00:30:00,73.1,64.7,30.14,SW,225,2.0,6.0,75,0.00,,---,0.00,VWS V13.00,2013-10-03 04:30:00,
2013-10-03 01:00:00,72.8,64.8,30.13,SW,225,2.0,6.0,76,0.00,,---,0.00,VWS V13.00,2013-10-03 05:00:00,
2013-10-03 01:30:00,72.3,64.3,30.13,WSW,248,0.0,4.0,76,0.00,,---,0.00,VWS V13.00,2013-10-03 05:30:00,
2013-10-03 02:00:00,70.7,63.1,30.13,WSW,248,0.0,0.0,77,0.00,,---,0.00,VWS V13.00,2013-10-03 06:00:00,
2013-10-03 02:30:00,69.1,61.6,30.13,WNW,292,0.0,1.0,77,0.00,,---,0.00,VWS V13.00,2013-10-03 06:30:00,
2013-10-03 03:00:00,67.9,60.8,30.12,NW,315,0.0,3.0,78,0.00,,---,0.00,VWS V13.00,2013-10-03 07:00:00,
2013-10-03 03:30:00,67.6,60.5,30.12,WNW,292,1.0,4.0,78,0.00,,---,0.00,VWS V13.00,2013-10-03 07:30:00,
2013-10-03 04:00:00,68.3,61.2,30.11,WNW,292,1.0,4.0,78,0.00,,---,0.00,VWS V13.00,2013-10-03 08:00:00,
2013-10-03 04:30:00,67.8,60.7,30.12,WNW,292,0.0,3.0,78,0.00,,---,0.00,VWS V13.00,2013-10-03 08:30:00,
2013-10-03 05:00:00,67.0,60.3,30.11,WNW,292,0.0,2.0,79,0.00,,---,0.00,VWS V13.00,2013-10-03 09:00:00,
2013-10-03 05:30:00,66.2,59.5,30.12,WNW,292,0.0,1.0,79,0.00,,---,0.00,VWS V13.00,2013-10-03 09:30:00,
2013-10-03 06:00:00,65.4,58.7,30.12,WNW,292,0.0,3.0,79,0.00,,---,0.00,VWS V13.00,2013-10-03 10:00:00,
2013-10-03 06:30:00,65.4,58.7,30.13,NW,315,0.0,3.0,79,0.00,,---,0.00,VWS V13.00,2013-10-03 10:30:00,
2013-10-03 07:00:00,65.6,59.3,30.13,NW,315,1.0,4.0,80,0.00,,---,0.00,VWS V13.00,2013-10-03 11:00:00,
2013-10-03 07:30:00,65.4,59.1,30.14,NW,315,1.0,6.0,80,0.00,,---,0.00,VWS V13.00,2013-10-03 11:30:00,
2013-10-03 08:00:00,66.0,59.7,30.15,NW,315,3.0,7.0,80,0.00,,---,0.00,VWS V13.00,2013-10-03 12:00:00,
2013-10-03 08:30:00,67.4,61.4,30.15,NW,315,3.0,7.0,81,0.00,,---,0.00,VWS V13.00,2013-10-03 12:30:00,
2013-10-03 09:00:00,68.6,62.5,30.16,NNW,338,3.0,8.0,81,0.00,,---,0.00,VWS V13.00,2013-10-03 13:00:00,
2013-10-03 09:30:00,70.4,63.9,30.16,NW,315,3.0,8.0,80,0.00,,---,0.00,VWS V13.00,2013-10-03 13:30:00,
2013-10-03 10:00:00,72.7,66.2,30.17,NW,315,3.0,8.0,80,0.00,,---,0.00,VWS V13.00,2013-10-03 14:00:00,
2013-10-03 10:30:00,75.1,68.2,30.17,NW,315,2.0,7.0,79,0.00,,---,0.00,VWS V13.00,2013-10-03 14:30:00,
2013-10-03 11:00:00,77.2,69.8,30.17,NW,315,1.0,5.0,78,0.00,,---,0.00,VWS V13.00,2013-10-03 15:00:00,
2013-10-03 11:30:00,79.3,71.5,30.17,South,180,3.0,9.0,77,0.00,,---,0.00,VWS V13.00,2013-10-03 15:30:00,
2013-10-03 12:00:00,79.6,71.4,30.16,South,180,4.0,8.0,76,0.00,,---,0.00,VWS V13.00,2013-10-03 16:00:00,
2013-10-03 12:30:00,79.9,71.3,30.16,South,180,5.0,9.0,75,0.00,,---,0.00,VWS V13.00,2013-10-03 16:30:00,
2013-10-03 13:00:00,80.5,71.5,30.15,South,180,3.0,9.0,74,0.00,,---,0.00,VWS V13.00,2013-10-03 17:00:00,
2013-10-03 13:30:00,80.6,71.6,30.14,South,180,6.0,10.0,74,0.00,,---,0.00,VWS V13.00,2013-10-03 17:30:00,
2013-10-03 14:00:00,80.2,70.8,30.13,South,180,5.0,12.0,73,0.00,,---,0.00,VWS V13.00,2013-10-03 18:00:00,
2013-10-03 14:30:00,80.6,71.2,30.14,South,180,5.0,11.0,73,0.00,,---,0.00,VWS V13.00,2013-10-03 18:30:00,
2013-10-03 15:00:00,80.9,71.4,30.13,South,180,4.0,11.0,73,0.00,,---,0.00,VWS V13.00,2013-10-03 19:00:00,
2013-10-03 15:30:00,80.5,71.1,30.13,South,180,4.0,10.0,73,0.00,,---,0.00,VWS V13.00,2013-10-03 19:30:00,
2013-10-03 16:00:00,80.1,70.7,30.12,South,180,5.0,11.0,73,0.00,,---,0.00,VWS V13.00,2013-10-03 20:00:00,
2013-10-03 16:30:00,79.5,70.1,30.12,South,180,4.0,10.0,73,0.00,,---,0.00,VWS V13.00,2013-10-03 20:30:00,
2013-10-03 17:00:00,78.8,69.4,30.12,South,180,4.0,9.0,73,0.00,,---,0.00,VWS V13.00,2013-10-03 21:00:00,
2013-10-03 17:30:00,78.5,69.1,30.12,South,180,4.0,9.0,73,0.00,,---,0.00,VWS V13.00,2013-10-03 21:30:00,
2013-10-03 18:00:00,77.8,68.9,30.12,South,180,2.0,8.0,74,0.00,,---,0.00,VWS V13.00,2013-10-03 22:00:00,
2013-10-03 18:30:00,77.0,68.1,30.12,South,180,2.0,7.0,74,0.00,,---,0.00,VWS V13.00,2013-10-03 22:30:00,
2013-10-03 19:00:00,76.1,67.6,30.12,South,180,2.0,7.0,75,0.00,,---,0.00,VWS V13.00,2013-10-03 23:00:00,
2013-10-03 19:30:00,75.5,67.0,30.13,SSE,158,2.0,7.0,75,0.00,,---,0.00,VWS V13.00,2013-10-03 23:30:00,
2013-10-03 20:00:00,75.1,67.0,30.13,SSE,158,2.0,6.0,76,0.00,,---,0.00,VWS V13.00,2013-10-04 00:00:00,
2013-10-03 20:30:00,74.9,66.8,30.14,SSE,158,3.0,8.0,76,0.00,,---,0.00,VWS V13.00,2013-10-04 00:30:00,
2013-10-03 21:00:00,74.8,67.1,30.14,SSE,158,3.0,8.0,77,0.00,,---,0.00,VWS V13.00,2013-10-04 01:00:00,
2013-10-03 21:30:00,74.8,67.1,30.14,SSE,158,2.0,7.0,77,0.00,,---,0.00,VWS V13.00,2013-10-04 01:30:00,
2013-10-03 22:00:00,74.7,67.0,30.15,SSE,158,2.0,7.0,77,0.00,,---,0.00,VWS V13.00,2013-10-04 02:00:00,
2013-10-03 22:30:00,74.3,67.0,30.15,SSE,158,2.0,5.0,78,0.00,,---,0.00,VWS V13.00,2013-10-04 02:30:00,
2013-10-03 23:00:00,74.2,66.9,30.15,SSE,158,2.0,6.0,78,0.00,,---,0.00,VWS V13.00,2013-10-04 03:00:00,
2013-10-03 23:30:00,74.2,66.9,30.15,SE,135,1.0,6.0,78,0.00,,---,0.00,VWS V13.00,2013-10-04 03:30:00,